This demonstration page uses our WeatherBlox Daily Observations layout. Learn more.

Left ArrowRight Arrow

34.74481, -87.66753

Hourly Observations for January 5, 2020

Temp ( °F °C ) Dew Point ( °F °C ) Humidity (%) Winds ( mph kmh ) Pressure ( in mb ) Visibility ( mi km ) Precip ( " mm )
12:53 am 00:53 Clear 32 0 28 -2.2 85 85 Calm 30.31 1026 10 16 0.00 0.00
1:53 am 01:53 Clear 32 0 28 -2.2 85 85 Calm 30.33 1027 10 16 0.00 0.00
2:53 am 02:53 Clear 31 -0.6 27 -2.8 85 85 Calm 30.33 1027 10 16 0.00 0.00
3:53 am 03:53 Clear 31 -0.6 27 -2.8 85 85 Calm 30.35 1028 10 16 0.00 0.00
4:53 am 04:53 Clear 30 -1.1 28 -2.2 92 92 SSE 3 6 30.34 1028 10 16 0.00 0.00
5:53 am 05:53 Clear 30 -1.1 27 -2.8 88 88 Calm 30.35 1028 10 16 0.00 0.00
6:53 am 06:53 Clear 31 -0.6 27 -2.8 85 85 Calm 30.37 1029 10 16 0.00 0.00
7:53 am 07:53 Sunny 33 0.6 30 -1.1 89 89 Calm 30.39 1029 10 16 0.00 0.00
8:53 am 08:53 Sunny 39 3.9 31 -0.6 73 73 VRB 3 6 30.40 1030 10 16 0.00 0.00
9:53 am 09:53 Sunny 45 7.2 32 0 61 61 SW 7 11 30.40 1029 10 16 0.00 0.00
10:53 am 10:53 Sunny 49 9.4 32 0 52 52 SSW 8 13 30.37 1029 10 16 0.00 0.00
11:53 am 11:53 Sunny 54 12.2 31 -0.6 42 42 WSW 9 15 30.30 1026 10 16 0.00 0.00
12:53 pm 12:53 Sunny 56 13.3 31 -0.6 39 39 SW 12 19 30.26 1025 10 16 0.00 0.00
1:53 pm 13:53 Sunny 57 13.9 31 -0.6 37 37 SW 9 15 30.22 1023 10 16 0.00 0.00
2:53 pm 14:53 Sunny 59 15 32 0 36 36 SW 12 19 30.21 1023 10 16 0.00 0.00
3:53 pm 15:53 Sunny 58 14.4 34 1.1 41 41 SW 9 15 30.22 1023 10 16 0.00 0.00
4:53 pm 16:53 Sunny 54 12.2 35 1.7 49 49 SSW 8 13 30.20 1023 10 16 0.00 0.00
5:53 pm 17:53 Clear 50 10 35 1.7 57 57 S 6 9 30.19 1023 10 16 0.00 0.00
6:53 pm 18:53 Clear 50 10 34 1.1 54 54 Calm 30.20 1023 10 16 0.00 0.00
7:53 pm 19:53 Clear 46 7.8 35 1.7 66 66 SSW 3 6 30.21 1023 10 16 0.00 0.00
8:53 pm 20:53 Clear 46 7.8 35 1.7 66 66 WSW 3 6 30.22 1023 10 16 0.00 0.00
9:53 pm 21:53 Clear 45 7.2 35 1.7 68 68 SSW 6 9 30.21 1023 10 16 0.00 0.00
10:53 pm 22:53 Clear 45 7.2 35 1.7 68 68 Calm 30.20 1023 10 16 0.00 0.00
11:53 pm 23:53 Clear 42 5.6 35 1.7 76 76 Calm 30.19 1022 10 16 0.00 0.00

Powered by AerisWeather